Location: Hylvaty SDH
(49.9612°N, 16.4057°E)
Time: 18:06:27
(UTC+02:00)

Transit 4A - Pass Details

Date: 13 August 2020
Orbit: 862 x 982 km, 66.8° (Epoch: 28 September)

Event Time Altitude Azimuth Distance (km) Brightness Sun altitude
Rises 15:05:27 0° 315° (NW) 3,613 11.0 46.2°
Reaches altitude 10° 15:08:43 10° 332° (NNW) 2,688 10.3 45.8°
Maximum altitude 15:13:18 21° 19° (NNE) 2,050 9.6 45.2°
Drops below altitude 10° 15:17:57 10° 66° (ENE) 2,728 10.0 44.7°
Sets 15:21:17 0° 82° (E) 3,683 10.6 44.2°
